This demonstration page uses our WeatherBlox Daily Observations layout. Learn more.

Left ArrowRight Arrow

Hourly Observations for June 28, 2022

Temp ( °F °C ) Dew Point ( °F °C ) Humidity (%) Winds ( mph kmh ) Pressure ( in mb ) Visibility ( mi km ) Precip ( " mm )
12:51 am 00:51 Cloudy 69 20.6 68 20 96 96 S 9 15 30.07 1018 10 16 0.00 0.00
1:51 am 01:51 Mostly Cloudy 69 20.6 67 19.4 93 93 SSE 7 11 30.07 1018 10 16 0.00 0.00
2:51 am 02:51 Mostly Cloudy 69 20.6 66 18.9 90 90 SSE 8 13 30.06 1018 10 16 0.00 0.00
3:51 am 03:51 Mostly Cloudy 69 20.6 66 18.9 90 90 SSE 6 9 30.05 1018 10 16 0.00 0.00
4:51 am 04:51 Clear 68 20 65 18.3 90 90 ESE 3 6 30.05 1018 10 16 0.00 0.00
5:51 am 05:51 Partly Cloudy 69 20.6 66 18.9 90 90 ESE 7 11 30.06 1018 10 16 0.00 0.00
6:51 am 06:51 Sunny 72 22.2 65 18.3 79 79 ESE 8 13 30.06 1018 10 16 0.00 0.00
7:51 am 07:51 Mostly Sunny 73 22.8 65 18.3 76 76 SSE 8 13 30.08 1019 10 16 0.00 0.00
8:51 am 08:51 Sunny 78 25.6 64 17.8 62 62 S 9 15 30.07 1018 10 16 0.00 0.00
9:51 am 09:51 Sunny 80 26.7 63 17.2 56 56 VRB 6 9 30.07 1018 10 16 0.00 0.00
10:51 am 10:51 Sunny 84 28.9 63 17.2 49 49 SSE 14 22 30.07 1018 10 16 0.00 0.00
11:51 am 11:51 Sunny 86 30 63 17.2 46 46 S 14 22 30.04 1017 10 16 0.00 0.00
12:51 pm 12:51 Sunny 88 31.1 62 16.7 42 42 SSE 13 20 30.01 1016 10 16 0.00 0.00
1:51 pm 13:51 Mostly Sunny 89 31.7 61 16.1 39 39 SE 10 17 29.98 1015 10 16 0.00 0.00
2:51 pm 14:51 Mostly Sunny 91 32.8 61 16.1 37 37 SSE 14 22 29.94 1014 10 16 0.00 0.00
3:51 pm 15:51 Sunny 90 32.2 60 15.6 37 37 SSW 8 13 29.91 1013 10 16 0.00 0.00
4:51 pm 16:51 Mostly Sunny 91 32.8 59 15 34 34 SE 9 15 29.90 1013 10 16 0.00 0.00
5:51 pm 17:51 Sunny 89 31.7 59 15 36 36 S 8 13 29.89 1012 10 16 0.00 0.00
6:51 pm 18:51 Sunny 89 31.7 59 15 36 36 S 7 11 29.88 1012 10 16 0.00 0.00
7:51 pm 19:51 Clear 86 30 58 14.4 39 39 S 7 11 29.91 1013 10 16 0.00 0.00
8:51 pm 20:51 Clear 85 29.4 59 15 42 42 ESE 5 7 29.92 1013 10 16 0.00 0.00
9:51 pm 21:51 Clear 83 28.3 61 16.1 48 48 E 3 6 29.94 1014 10 16 0.00 0.00
10:51 pm 22:51 Clear 81 27.2 59 15 47 47 ESE 6 9 29.95 1014 10 16 0.00 0.00
11:51 pm 23:51 Clear 81 27.2 59 15 47 47 E 6 9 29.95 1014 10 16 0.00 0.00

Powered by AerisWeather